Theta_e
308 308 307 307 307 308 310 310 310 310 310 312 312 308 309 311 311 310 312 317 321 323 325 324 323 323 323 321 320 318 318 316 315 313 311 310 312 313 315 316 316 316 316
308 308 308 307 307 308 310 310 310 310 311 311 310 307 307 307 307 307 307 309 318 322 324 323 323 322 321 319 318 318 315 315 314 313 315 315 315 315 315 315 313 313 313
309 308 308 307 307 308 309 311 311 311 310 310 309 308 307 305 304 305 304 304 306 319 322 323 322 320 318 316 316 317 316 314 314 313 312 313 314 314 313 314 315 314 314
309 308 308 308 307 308 309 310 310 311 309 308 308 308 307 306 307 307 306 306 305 310 316 319 318 318 316 316 315 315 315 314 314 314 314 313 312 312 313 312 313 313 313
310 309 308 307 307 307 308 310 310 310 309 309 309 307 307 307 306 305 305 305 304 304 310 315 314 314 315 314 314 313 311 311 312 313 313 313 313 313 313 313 312 313 313
310 309 308 308 307 307 307 309 310 311 310 309 309 308 307 306 306 305 304 304 305 305 304 304 306 309 312 310 314 314 313 311 311 312 313 312 311 312 311 311 311 310 310
310 310 308 308 307 307 307 309 311 311 311 310 309 308 308 308 307 306 303 304 303 304 305 304 303 303 303 303 303 304 308 310 312 311 311 310 310 309 307 304 303 302 302
310 309 308 308 307 307 307 307 309 311 311 310 309 309 309 308 309 308 304 303 303 303 304 304 304 303 302 302 302 302 302 303 308 309 308 306 304 300 301 301 301 301 300
310 309 309 308 307 307 307 307 307 308 310 310 310 308 308 308 309 309 304 303 303 302 303 304 304 303 303 302 302 302 302 303 303 302 301 299 298 297 296 296 296 297 298
309 309 309 308 307 307 306 307 307 308 308 309 310 308 308 307 309 307 305 304 303 302 302 304 304 303 303 303 303 303 303 303 302 298 296 296 295 294 294 294 296 298 299
309 309 309 308 308 307 306 306 306 307 307 308 308 308 308 310 307 307 305 304 303 303 303 304 304 304 303 303 304 304 303 303 301 297 294 294 293 292 292 293 294 297 297
310 309 308 308 308 307 307 306 306 306 306 308 308 308 307 308 308 306 305 304 303 303 304 304 304 304 304 304 304 304 303 302 300 296 292 292 292 291 291 291 293 296 296
312 310 309 308 308 307 307 306 306 306 306 307 307 308 308 309 308 308 307 305 303 304 304 304 305 304 304 304 304 303 302 301 298 293 291 291 291 290 290 290 291 294 294
316 314 310 308 308 308 307 306 306 306 305 305 305 307 308 308 308 308 307 306 304 304 304 304 305 304 304 303 303 303 302 300 293 291 291 290 290 290 290 289 290 291 290
319 317 314 310 308 308 307 307 306 305 305 305 305 304 305 305 304 305 305 306 306 304 304 304 304 304 303 303 303 302 300 294 291 290 290 290 290 289 289 288 289 289 288
323 320 317 314 310 308 307 307 306 305 305 305 305 304 304 304 304 305 305 306 305 305 305 304 303 304 303 302 301 301 296 291 290 290 289 290 289 289 288 288 287 287 287
326 324 321 318 313 309 308 307 306 305 305 305 305 304 304 305 305 305 305 305 305 305 305 303 303 303 301 300 300 294 290 290 290 289 289 288 287 287 287 287 286 286 286
325 324 322 318 314 310 309 308 307 305 305 305 304 304 304 304 304 304 304 304 304 303 303 304 302 301 300 298 292 290 290 290 289 289 288 287 287 286 286 286 286 285 285
324 322 321 319 315 311 309 308 306 305 304 304 304 304 304 303 303 303 303 303 300 296 295 294 294 294 292 290 289 289 289 289 288 288 287 287 286 285 285 285 285 285 285
322 321 320 319 317 313 310 307 305 304 304 304 304 303 302 302 302 302 299 296 295 297 299 297 294 290 289 289 288 288 289 289 288 287 286 286 286 285 285 285 285 285 285
321 320 319 319 316 315 314 313 307 302 303 303 302 302 302 302 300 297 296 299 298 296 293 291 290 289 288 288 288 288 288 287 287 287 287 287 286 286 285 285 285 285 285
318 317 315 314 313 313 314 308 306 305 302 303 305 301 303 302 298 299 301 300 293 291 290 290 289 289 288 288 288 288 287 287 287 287 286 287 286 286 285 285 285 285 285
316 315 314 313 312 313 308 305 304 303 303 303 302 302 302 303 302 302 298 297 290 289 289 289 288 288 288 288 287 287 287 286 286 286 284 285 286 286 286 285 285 285 285
315 315 313 312 311 310 308 307 304 304 303 302 301 301 301 302 299 292 295 290 289 288 288 288 288 288 288 287 287 286 285 285 285 285 285 284 285 285 285 285 285 285 284
313 312 311 310 309 308 306 305 304 303 301 300 301 301 299 292 291 292 289 288 288 288 288 287 287 287 287 286 285 285 284 285 285 285 285 284 284 284 285 285 284 283 283
311 311 309 307 307 306 305 304 303 301 300 300 299 298 289 297 293 289 288 287 287 287 287 287 287 286 286 285 285 285 285 284 284 284 283 282 283 282 282 283 283 283 283
Wind_Speed
18 18 17 17 17 17 17 17 16 16 15 13 12 12 14 12 11 12 14 20 20 18 17 16 17 20 20 16 12 10 10 8 8 7 7 9 13 16 17 17 17 17 17
17 18 18 17 17 17 17 16 16 17 16 13 13 13 13 12 11 10 11 12 19 20 19 17 15 13 10 7 11 11 9 13 14 14 17 17 18 17 17 17 17 16 16
18 17 17 17 18 19 18 17 16 16 16 15 14 14 13 12 12 11 11 11 13 20 20 20 16 11 8 9 10 15 15 15 15 16 16 18 17 17 17 17 16 16 15
19 17 18 18 19 19 19 17 16 16 16 15 16 15 13 13 12 11 11 11 12 13 16 17 15 13 13 13 14 16 14 15 14 15 14 12 12 12 14 14 14 14 14
20 18 18 19 20 21 20 19 19 16 18 18 18 16 14 12 11 10 10 11 11 12 12 11 8 12 14 12 14 13 14 14 14 13 13 12 11 10 12 11 12 13 13
22 19 19 19 20 21 22 22 20 19 17 18 19 18 15 12 10 9 9 10 11 11 11 11 10 11 13 12 15 14 14 11 11 10 10 10 9 9 8 10 12 10 9
23 21 21 21 21 22 22 23 23 22 22 20 22 19 15 11 9 8 8 8 9 10 10 11 10 8 6 5 5 6 9 10 9 8 8 7 8 8 8 11 14 15 16
24 23 23 22 23 24 25 26 26 27 24 23 22 22 14 13 12 9 8 8 8 9 9 10 9 8 7 5 3 2 2 3 6 7 7 5 10 14 13 14 15 15 17
27 26 25 24 24 26 27 28 30 29 29 28 25 13 10 8 19 14 11 10 8 8 8 9 8 7 5 3 2 1 2 4 6 8 10 13 15 16 16 17 18 18 18
29 28 26 26 26 27 28 27 30 30 29 30 30 24 13 12 14 15 16 14 11 9 9 9 7 6 5 4 3 3 4 5 8 10 13 16 19 19 20 19 18 16 15
31 29 28 28 28 27 27 28 31 31 29 29 31 32 19 13 17 15 23 23 17 13 11 9 8 7 6 6 6 6 7 8 11 14 16 20 22 23 21 19 18 16 16
33 32 31 30 29 29 28 28 29 30 30 29 29 28 25 20 21 17 14 25 20 17 14 12 10 9 8 7 7 8 10 11 15 17 18 20 23 23 21 18 15 14 14
36 35 34 34 33 31 29 30 30 31 31 30 30 28 28 24 18 20 16 27 25 20 16 15 14 12 11 9 10 11 14 16 18 19 18 21 20 20 19 17 16 14 16
36 35 35 35 34 33 32 31 31 30 30 29 29 30 28 26 22 21 20 24 24 21 19 18 18 16 14 12 12 14 17 20 21 19 18 18 18 19 20 19 17 18 18
36 38 37 37 36 35 33 32 33 33 31 29 27 27 26 24 23 22 21 22 27 23 23 20 16 18 16 14 14 16 20 22 21 21 19 18 18 20 21 20 17 19 21
38 37 38 39 38 37 36 34 33 32 31 30 28 27 25 23 22 20 18 21 25 18 19 21 21 17 17 15 15 16 20 21 20 18 18 20 21 20 19 19 20 22 23
39 41 40 40 40 39 37 35 32 31 29 28 26 26 24 21 21 20 19 22 23 20 17 16 20 18 17 15 16 18 18 19 18 18 20 20 19 18 18 19 22 23 23
36 38 41 39 41 39 34 30 26 29 28 26 25 24 23 22 21 19 19 19 18 16 13 15 17 17 16 17 17 15 17 17 17 19 20 20 20 20 19 22 23 24 24
37 39 41 42 42 39 38 29 27 26 25 24 22 22 21 19 17 17 15 14 14 12 11 12 12 14 17 16 14 13 14 15 17 18 19 20 19 19 21 22 25 25 25
35 38 41 40 39 38 35 36 32 26 27 24 23 21 17 14 13 13 12 11 9 8 11 13 13 14 13 13 13 12 14 14 15 15 16 17 19 20 22 23 25 25 26
33 36 37 37 35 34 37 43 42 34 32 27 21 16 15 15 13 13 12 10 9 10 14 12 10 10 11 11 11 12 13 14 14 16 17 18 21 22 23 25 26 26 27
30 31 34 34 34 35 35 42 45 46 40 34 34 30 28 26 20 15 14 13 13 13 11 11 10 10 11 10 11 12 15 17 19 19 26 21 25 24 25 24 27 28 25
27 27 29 32 33 31 43 43 41 41 40 37 33 33 28 22 19 17 15 15 14 11 11 10 9 10 9 10 12 14 17 19 20 22 27 31 27 26 25 27 26 21 17
25 27 29 32 33 34 41 38 39 37 37 34 32 27 24 21 17 15 14 12 12 10 10 9 8 8 9 11 13 17 18 21 22 23 25 32 28 31 32 28 20 17 20
26 29 30 32 34 36 37 40 42 37 33 32 30 27 20 13 15 15 12 11 10 10 9 8 8 8 9 13 15 16 18 21 25 25 25 25 31 35 33 29 21 23 24
29 31 33 36 38 38 43 40 36 35 34 33 28 20 19 17 15 13 12 10 10 10 9 9 8 9 10 13 14 16 18 20 23 25 19 26 27 28 32 25 32 28 30
Wind_Direction
168 164 163 164 165 163 165 166 159 152 146 141 134 141 151 149 139 126 120 131 125 106 103 101 101 102 105 109 109 100 91 77 72 62 53 51 57 58 59 55 51 49 46
177 170 168 168 168 168 164 167 164 154 148 149 140 140 146 146 144 139 133 125 139 123 109 112 113 116 113 108 94 84 74 74 71 68 67 63 60 59 55 51 45 43 39
183 177 174 171 172 170 168 170 168 162 156 152 148 142 139 135 132 130 134 135 136 147 130 117 117 117 100 91 94 88 81 78 76 70 63 60 55 52 48 45 43 39 36
188 185 180 177 175 175 175 177 179 170 164 160 151 145 142 139 137 134 131 134 133 156 160 148 134 110 99 99 98 92 90 82 79 73 69 65 60 54 46 38 38 32 30
192 192 186 184 182 180 180 182 178 181 165 158 150 144 141 140 140 138 137 134 134 139 162 173 168 135 120 111 96 89 84 78 75 68 70 58 54 50 50 33 33 25 21
199 195 192 193 189 186 185 184 184 179 176 166 154 146 143 144 140 139 142 141 140 139 145 152 157 153 142 120 111 96 84 75 66 63 58 45 40 40 34 26 22 15 5
204 202 199 198 196 195 193 189 186 183 179 178 165 152 146 150 151 149 152 152 150 151 148 151 154 158 161 149 130 110 90 77 60 60 52 38 26 15 359 342 352 351 348
210 209 207 205 203 195 193 196 197 186 190 187 181 162 151 164 172 171 165 165 163 160 158 158 157 160 163 156 142 98 70 53 62 48 40 353 325 338 351 349 348 344 338
216 214 213 212 208 206 203 202 201 202 194 194 196 181 163 185 176 181 180 181 175 173 177 176 169 170 175 182 194 292 327 342 350 359 347 336 333 337 335 335 332 331 333
219 221 219 217 215 213 210 208 209 210 207 202 199 202 202 194 174 178 188 188 186 184 190 192 193 193 197 218 254 286 306 330 343 342 336 328 328 330 331 331 336 338 345
222 223 223 222 220 219 216 214 213 214 215 215 211 204 206 199 193 184 184 187 188 186 189 197 207 218 227 245 267 290 305 317 327 332 331 324 324 328 328 328 328 334 338
224 224 224 226 225 223 220 218 218 221 220 220 223 219 218 213 207 202 196 189 189 184 192 201 213 225 241 256 275 292 305 317 326 329 325 318 321 322 325 328 333 342 345
226 226 225 224 226 226 223 222 220 221 221 221 222 225 227 233 236 224 220 189 185 186 194 204 213 227 245 260 275 297 310 316 322 321 320 315 320 322 325 324 333 338 341
236 234 231 230 229 229 227 225 224 224 223 223 225 229 232 232 235 230 227 204 187 188 200 208 213 225 238 254 274 294 307 314 319 318 315 319 323 325 326 328 331 326 332
243 241 237 236 233 232 229 228 227 223 223 224 224 227 227 227 225 226 228 230 216 193 202 213 217 223 238 254 273 295 306 314 317 319 319 323 325 324 322 322 323 327 329
245 245 244 241 238 234 233 230 229 227 225 223 220 222 221 219 220 217 214 216 215 229 213 219 222 231 242 249 270 288 302 310 315 315 316 319 321 319 319 316 319 319 319
247 246 244 242 240 235 233 229 228 229 225 223 217 217 215 214 214 212 210 210 215 224 234 223 225 229 236 254 275 292 299 304 310 312 316 319 322 320 317 317 316 314 314
251 249 245 240 235 227 226 229 231 229 224 219 217 212 212 209 206 208 207 208 212 214 222 226 218 225 246 263 276 285 294 300 304 307 311 317 318 315 315 315 314 314 316
251 245 243 239 235 227 219 223 228 223 225 218 215 212 211 208 204 202 203 207 213 209 209 217 226 242 253 262 270 282 287 295 305 305 309 311 314 316 317 317 314 316 317
252 245 242 241 236 229 218 213 211 217 224 216 219 212 206 204 210 203 208 215 224 237 243 251 250 244 253 264 272 280 285 296 303 305 309 313 314 317 314 312 313 316 315
251 245 243 244 238 226 224 225 214 201 208 205 200 206 207 203 209 212 218 233 250 260 252 246 252 266 267 273 286 294 301 309 309 309 309 313 311 316 314 315 314 315 315
246 247 245 240 229 218 222 216 206 202 198 210 219 207 206 204 207 224 233 233 235 245 253 261 258 256 263 279 292 298 306 316 322 320 316 318 318 319 316 315 316 316 314
250 246 243 238 231 227 208 202 199 206 208 207 203 207 207 209 218 223 218 234 237 245 248 251 253 264 276 284 292 299 311 314 318 322 317 315 323 321 318 319 317 318 320
249 248 242 238 232 219 207 213 201 199 194 202 203 204 208 209 214 213 228 224 230 234 238 244 252 262 276 284 295 305 310 314 317 317 313 314 325 321 323 325 326 327 330
241 238 237 230 218 205 199 193 194 194 197 191 201 206 199 188 209 225 220 220 227 234 244 251 257 268 281 288 297 301 307 312 314 319 320 320 327 322 325 330 333 333 333
234 233 227 218 210 204 191 192 199 196 193 201 200 179 182 212 214 218 218 217 224 238 244 251 264 278 285 289 296 306 310 313 315 320 329 320 325 332 329 327 322 328 332